Terminal Aerodrome Forecast
Issued by NWS

Current Version | Previous Version | Text Only | Print | Product List | Glossary Off
Versions: 1 2 3 4 5 6 7 8 9 10 11 12 13 14 15 16 17 18 19 20 21

000
FTUS41 KRLX 300250 AAA
TAFCKB
TAF AMD
KCKB 300250Z 3003/3024 16004KT 5SM SHRA VCTS BKN060CB
     FM300500 16005KT 6SM SHRA BR BKN040
     FM300700 20004KT 5SM BR BKN035
     FM301400 21007KT P6SM BKN025
     FM301700 23008KT P6SM VCTS BKN040CB=

USA.gov is the U.S. government's official web portal to all federal, state and local government web resources and services.